Date,TemperatureHighF,TemperatureAvgF,TemperatureLowF,DewpointHighF,DewpointAvgF,DewpointLowF,HumidityHigh,HumidityAvg,HumidityLow,PressureMaxIn,PressureMinIn,WindSpeedMaxMPH,WindSpeedAvgMPH,GustSpeedMaxMPH,PrecipitationSumIn
2013-1-1,26.0,14.7,7.0,15.0,4.7,-5.0,95,67,28,0.00,40.00,12,4,18,0.00
2013-1-2,19.0,13.5,10.0,6.0,-3.2,-14.0,72,48,24,0.00,40.00,14,8,23,0.00
2013-1-3,46.0,27.4,11.0,1.0,-13.4,-26.0,36,18,5,0.00,40.00,4,3,10,0.00
2013-1-4,43.0,30.9,18.0,5.0,-6.6,-21.0,44,22,9,0.00,40.00,5,3,8,0.00
2013-1-5,31.0,20.1,11.0,13.0,-0.8,-31.0,61,43,7,0.00,40.00,5,3,8,0.00
2013-1-6,43.0,33.2,27.0,11.0,-6.0,-25.0,45,20,7,0.00,40.00,11,4,19,0.00
2013-1-7,35.0,27.2,18.0,15.0,7.3,3.0,59,43,27,0.00,40.00,11,6,20,0.00
2013-1-8,30.0,24.6,21.0,13.0,9.6,6.0,67,52,43,0.00,40.00,12,7,22,0.00
2013-1-9,47.0,38.0,29.0,15.0,6.0,-8.0,55,29,13,0.00,40.00,22,11,29,0.00
2013-1-10,42.0,35.1,23.0,20.0,8.4,-9.0,89,38,11,0.00,40.00,20,12,31,0.00
2013-1-11,23.0,4.4,-6.0,21.0,1.6,-10.0,94,87,76,0.00,40.00,7,2,15,0.00
2013-1-12,5.0,-3.2,-8.0,-1.0,-7.3,-12.0,90,82,72,0.00,40.00,4,2,6,0.00
2013-1-13,1.0,-6.3,-13.0,-5.0,-10.8,-17.0,86,80,71,0.00,40.00,4,2,6,0.00
2013-1-14,12.0,-0.0,-9.0,-8.0,-12.8,-17.0,76,56,30,0.00,40.00,7,3,10,0.00
2013-1-15,32.0,23.5,5.0,28.0,15.5,-5.0,99,72,59,0.00,40.00,12,7,22,0.00
2013-1-16,38.0,28.7,18.0,17.0,11.5,6.0,66,50,30,0.00,40.00,11,5,19,0.00
2013-1-17,43.0,29.4,18.0,13.0,6.3,-1.0,68,42,21,0.00,40.00,14,6,19,0.00
2013-1-18,43.0,36.0,32.0,4.0,0.1,-6.0,29,21,16,0.00,40.00,14,9,21,0.00
2013-1-19,36.0,30.5,25.0,13.0,1.1,-10.0,49,29,15,0.00,40.00,20,8,28,0.00
2013-1-20,30.0,22.7,11.0,20.0,8.0,-5.0,100,59,21,0.00,40.00,13,7,23,0.00
2013-1-21,40.0,32.3,28.0,12.0,5.1,-8.0,48,32,21,0.00,40.00,20,11,30,0.00
2013-1-22,40.0,33.0,25.0,6.0,-6.1,-15.0,31,19,9,0.00,40.00,14,5,20,0.00
2013-1-23,47.0,41.3,37.0,-6.0,-10.0,-12.0,15,11,8,0.00,40.00,12,6,20,0.00
2013-1-24,42.0,34.8,24.0,19.0,7.6,-10.0,78,36,11,0.00,40.00,12,5,21,0.00
2013-1-25,41.0,33.4,27.0,14.0,5.6,-4.0,48,31,20,0.00,40.00,13,4,21,0.00
2013-1-26,42.0,34.7,30.0,20.0,15.9,7.0,63,47,33,0.00,40.00,11,5,20,0.00
2013-1-27,37.0,27.0,16.0,24.0,18.3,14.0,100,73,43,0.00,40.00,6,4,10,0.00
2013-1-28,17.0,12.9,5.0,16.0,11.0,1.0,95,92,75,0.00,40.00,6,2,9,0.00
2013-1-29,20.0,8.7,2.0,7.0,-2.9,-14.0,81,59,41,0.00,40.00,10,6,15,0.00
2013-1-30,23.0,14.4,5.0,16.0,5.6,-14.0,97,69,39,0.00,40.00,13,7,22,0.00
2013-1-31,28.0,20.5,7.0,19.0,12.2,-2.0,93,71,51,0.00,40.00,14,6,28,0.00